Weather History for Jefferson City, MO

Change the Weather History Date:

Wednesday, November 7, 2012

  Actual Average Record
Temperature  
Mean Temperature 42 °F -  
Max Temperature 51 °F 56 °F 82 °F (1931)
Min Temperature 30 °F 33 °F 14 °F (1959)
Degree Days  
Heating Degree Days 23    
Moisture  
Dew Point 33 °F    
Average Humidity 65    
Maximum Humidity 89    
Minimum Humidity 48    
Precipitation  
Precipitation 0.00 in - - ()
Sea Level Pressure  
Sea Level Pressure 30.09 in    
Wind  
Wind Speed 5 mph (NNW)    
Max Wind Speed 13 mph    
Max Gust Speed 17 mph    
Visibility 10 miles    
Events      
Averages and records for this station are not official NWS values.
T = Trace of Precipitation, MM = Missing Value Source: NWS Daily Summary

Daily Weather History Graph

Daily Weather History Graph

Search for Another Location

Airport:

Trip Planner

Search our weather history database for the weather conditions in past years. The results will help you decide how hot, cold, wet, or windy it might be!

Date:

Astronomy

Nov. 07, 2012 Rise Set
Actual Time 6:42 AM CST 5:01 PM CST
Civil Twilight 6:14 AM CST 5:29 PM CST
Nautical Twilight 5:42 AM CST 6:01 PM CST
Astronomical Twilight 5:11 AM CST 6:32 PM CST
Moon No Moon Rise 1:06 PM CST (11/7)
Length of Visible Light 11h 15m
Length of Day
10h 19m
Last Quarter, 43% of the Moon is Illuminated
Nov 7
Last Quarter
Nov 13
New
Nov 20
First Quarter
Nov 28
Full
Dec 6
Last Quarter

Hourly Weather History & Observations

Time (CST) Temp. Windchill Dew Point Humidity Pressure Visibility Wind Dir Wind Speed Gust Speed Precip Events Conditions
12:53 AM 48.9 °F - 36.0 °F 61% 29.97 in 10.0 mi WNW 3.5 mph - N/A   Overcast
1:53 AM 48.9 °F - 35.1 °F 59% 29.97 in 10.0 mi WNW 5.8 mph - N/A   Overcast
2:53 AM 48.0 °F - 36.0 °F 63% 29.98 in 10.0 mi WNW 5.8 mph - N/A   Overcast
3:53 AM 48.0 °F - 34.0 °F 58% 29.98 in 10.0 mi WNW 8.1 mph - N/A   Overcast
4:53 AM 46.9 °F - 35.1 °F 63% 29.99 in 10.0 mi NW 4.6 mph - N/A   Overcast
6:53 AM 44.1 °F 40.8 °F 34.0 °F 68% 30.03 in 10.0 mi WNW 5.8 mph - N/A   Clear
7:53 AM 45.0 °F 40.1 °F 34.0 °F 65% 30.06 in 10.0 mi WNW 9.2 mph - N/A   Overcast
8:53 AM 46.9 °F - 35.1 °F 63% 30.09 in 10.0 mi NNW 6.9 mph - N/A   Mostly Cloudy
9:53 AM 48.9 °F - 33.1 °F 54% 30.10 in 10.0 mi NNW 12.7 mph 17.3 mph N/A   Mostly Cloudy
10:53 AM 48.0 °F - 32.0 °F 54% 30.12 in 10.0 mi North 9.2 mph - N/A   Overcast
11:53 AM 48.0 °F - 32.0 °F 54% 30.12 in 10.0 mi North 5.8 mph - N/A   Overcast
12:53 PM 48.9 °F - 32.0 °F 52% 30.11 in 10.0 mi NNW 9.2 mph - N/A   Overcast
1:53 PM 50.0 °F - 32.0 °F 50% 30.10 in 10.0 mi NNW 4.6 mph - N/A   Overcast
2:53 PM 51.1 °F - 32.0 °F 48% 30.11 in 10.0 mi Variable 3.5 mph - N/A   Overcast
3:53 PM 50.0 °F - 32.0 °F 50% 30.11 in 10.0 mi NE 4.6 mph - N/A   Partly Cloudy
5:53 PM 43.0 °F - 32.0 °F 65% 30.13 in 10.0 mi Calm Calm - N/A   Clear
6:53 PM 39.9 °F 37.8 °F 32.0 °F 73% 30.14 in 10.0 mi ESE 3.5 mph - N/A   Clear
7:53 PM 39.0 °F - 32.0 °F 76% 30.14 in 10.0 mi Calm Calm - N/A   Clear
8:53 PM 35.1 °F - 30.0 °F 82% 30.15 in 10.0 mi Calm Calm - N/A   Clear
9:53 PM 34.0 °F - 30.0 °F 85% 30.16 in 10.0 mi Calm Calm - N/A   Clear
10:53 PM 33.1 °F - 30.0 °F 89% 30.15 in 10.0 mi Calm Calm - N/A   Clear
11:53 PM 30.9 °F 27.5 °F 28.0 °F 89% 30.17 in 10.0 mi ESE 3.5 mph - N/A   Clear